Location: McDonald Observatory
(30.6717°N, 104.0221°W)
Time: 15:47:04
(UTC-05:00)

Daily predictions for brighter satellites

Satellite Brightness Start Highest point End
(mag) Time Altitude Azimuth Time Altitude Azimuth Time Altitude Azimuth
H-2A R/B 3.5 21:11:36 10° SE 21:14:54 31° ENE 21:18:14 10° N
CZ-4B DEB 2.8 21:11:49 10° SSE 21:15:04 72° ENE 21:18:20 10° N
ATLAS 5 CENTAUR R/B 2.5 21:09:08 10° NNW 21:15:21 78° ENE 21:21:52 10° SSE
Cosmos 1340 Rocket 4.2 21:13:41 10° SSW 21:17:29 44° W 21:21:22 10° N
Cosmos 1733 Rocket 3.0 21:13:36 10° S 21:17:58 67° E 21:22:19 10° NNE
SL-27 R/B 2.7 21:22:03 10° N 21:25:35 51° ENE 21:29:00 10° SSE
USA 215 3.6 21:19:22 10° SSE 21:25:52 68° SW 21:32:24 10° NW
ERBS 3.5 21:23:30 10° NW 21:26:47 41° WSW 21:30:03 10° SSE
Cosmos 1782 3.3 21:29:11 10° N 21:33:02 43° E 21:36:53 10° SSE
Meteor 2-10 Rocket 3.7 21:28:43 10° N 21:34:28 88° E 21:40:00 10° S
Cosmos 1825 3.2 21:32:29 10° SSE 21:35:44 27° E 21:39:01 10° NNE
SEDSat Delta rocket 3.0 21:32:16 10° WSW 21:37:01 68° SSE 21:41:14 10° E
Envisat 4.4 21:35:07 12° ESE 21:38:23 20° ENE 21:42:04 10° NNE
Meteosat 1 Rocket2 3.7 21:34:11 10° W 21:38:52 68° S 21:45:16 13° ESE
Cosmos 1844 Rocket 3.8 21:35:11 10° SW 21:40:37 48° WNW 21:46:05 10° N
FENGYUN 3A 3.7 21:37:07 10° SSE 21:42:31 87° ENE 21:47:56 10° NNW
ISS -0.1 21:42:52 10° WNW 21:44:33 13° NW 21:46:13 10° N
deb Chang Zheng 4 4.5 21:41:04 10° NE 21:44:57 29° E 21:48:49 10° SSE
Cosmos 2278 Rocket 2.2 21:39:54 10° SSW 21:45:33 82° ESE 21:51:15 10° NNE
ERS-1 Rocket 3.6 21:43:06 13° SE 21:47:08 37° ENE 21:51:44 10° N
Meteor 2-6 Rocket 4.3 21:42:14 10° N 21:48:06 69° E 21:53:47 10° SSE
H-2A R/B 3.5 21:46:49 15° ESE 21:48:40 20° ENE 21:51:46 10° NNE
Cosmos 1420 Rocket 4.1 21:44:59 10° S 21:50:03 51° ESE 21:55:06 10° NNE
Atlas Centaur 2 1.3 21:46:27 10° W 21:50:11 54° SSW 21:52:19 21° SE
Intelsat 3F5 C 4.1 21:47:00 10° W 21:50:28 77° S 21:52:25 22° ESE
Abrixas 2.8 21:49:26 10° SW 21:52:27 68° NW 21:55:29 10° NE
Cosmos 1939 Rocket 4.0 21:50:57 19° ESE 21:52:40 26° ENE 21:55:59 10° NNE
COSMOS 2406 3.8 21:47:23 10° NNW 21:53:00 58° WSW 21:58:34 10° S
APEX 3.3 21:52:02 10° S 21:55:31 56° ESE 22:00:02 10° NNE
Okean 3 4.4 21:53:29 10° NNE 21:57:11 28° E 21:58:47 22° ESE
YAOGAN 11 4.3 21:54:32 14° SSE 21:58:15 60° ENE 22:02:45 10° N
COSMOS 2487 3.4 21:55:40 10° N 21:58:54 31° ENE 22:00:03 25° ESE
Cosmos 2154 Rocket 3.9 21:54:20 10° S 22:00:32 76° E 22:06:44 10° N
Cosmos 407 Rocket 3.5 21:55:48 10° NNW 22:01:07 88° W 22:05:59 13° SSE
Cosmos 1238 Rocket 3.4 22:00:54 10° NNE 22:04:24 38° E 22:06:08 26° SE
SPOT 5 4.2 22:02:47 20° ESE 22:05:00 27° ENE 22:09:26 10° NNE
Cosmos 1184 Rocket 2.7 22:06:14 13° S 22:09:05 79° E 22:12:26 10° N
Cosmos 2082 Rocket 3.7 22:06:58 10° NNE 22:11:03 20° ENE 22:12:50 17° E
Lacrosse 5 2.6 22:09:48 10° S 22:14:11 30° ESE 22:18:35 10° ENE
CENTAUR R/B 4.4 22:12:53 10° NW 22:20:03 35° WSW 22:27:20 10° S
Cosmos 2297 3.6 22:18:38 10° SSW 22:24:19 87° ESE 22:30:04 10° NNE
Okean 2 Rocket 2.9 22:24:27 19° S 22:27:36 86° E 22:32:02 10° N
Meteor 1-14 Rocket 4.3 22:26:18 27° SSE 22:29:14 53° E 22:34:40 10° NNE
CZ-4 DEB 4.3 22:28:28 20° SSW 22:30:08 33° W 22:33:02 10° NNW
Cosmos 1606 3.6 22:28:25 10° NNW 22:32:13 49° W 22:34:30 21° SSW
Cosmos 1782 Rocket 3.9 22:27:50 10° SSW 22:32:15 66° W 22:36:42 10° N
Meteor 2-13 Rocket 4.4 22:26:56 10° S 22:33:01 82° E 22:39:12 10° N
Intercosmos 25 2.9 22:37:35 77° SE 22:37:45 80° E 22:40:55 10° N
Cosmos 1242 Rocket 2.6 22:35:33 10° N 22:38:59 61° ENE 22:38:59 61° ENE
COS B Rocket 3.9 22:39:44 10° N 22:43:17 45° W 22:44:15 34° SW
YAOGAN 6 3.9 22:45:16 29° NE 22:45:16 29° NE 22:47:27 10° N
GPS 2-05 Rocket1 3.9 22:43:00 10° WNW 22:46:32 40° N 22:46:55 39° NNE
Lacrosse 5 rocket 1.1 22:43:10 10° SW 22:47:13 83° NW 22:51:05 10° NE
Cosmos 1850 Rocket 4.0 22:43:27 10° N 22:48:46 68° ENE 22:49:44 55° SE
ARGOS 3.8 22:50:37 36° ENE 22:50:47 36° ENE 22:55:39 10° N
OAO 3 Rocket 3.8 22:46:20 10° W 22:51:13 55° N 22:53:20 31° NE
Cosmos 1975 Rocket 3.2 22:48:08 10° NNW 22:52:26 67° W 22:53:20 51° SSW
USA 229 DEB 4.4 22:45:45 10° NNW 22:52:27 42° NE 22:54:27 35° E
USA 229 4.4 22:45:52 10° NNW 22:52:33 42° NE 22:54:33 35° E
Cosmos 2218 Rocket 3.9 22:52:54 34° S 22:55:56 81° E 23:02:20 10° N
DNEPR-1 R/B 3.5 22:55:39 10° NNW 23:00:35 87° WSW 23:00:37 87° SSW
Cosmos 1959 Rocket 4.4 23:01:24 37° S 23:04:03 86° W 23:10:10 10° N
Cosmos 1331 Rocket 4.0 23:07:15 64° ENE 23:07:15 64° ENE 23:11:50 10° NNE
Cosmos 1741 Rocket 3.9 23:05:47 10° NNW 23:10:59 75° WSW 23:11:25 70° SSW
MetOp-A 4.2 23:12:39 63° SSW 23:13:24 74° WSW 23:18:45 10° NNW
Cosmos 1727 Rocket 4.0 23:08:57 10° N 23:15:04 61° E 23:15:12 61° E
Cosmos 1110 Rocket 4.0 23:15:53 71° SW 23:16:22 79° WNW 23:21:36 10° NNE
Envisat 4.3 23:15:20 27° SW 23:17:06 35° W 23:21:43 10° NNW
Meteor 1-20 Rocket 4.1 23:21:30 78° NE 23:21:30 78° NE 23:26:45 10° N
Terra 3.6 23:23:26 22° NE 23:23:26 22° NE 23:25:41 10° NNE
Cosmos 614 Rocket 4.2 23:18:03 10° NNW 23:23:01 61° W 23:23:01 61° W
SEDSat Delta rocket 4.1 23:18:46 10° W 23:21:32 37° W 23:21:32 37° W
H-2A R/B 3.8 23:23:57 24° WSW 23:24:30 25° W 23:28:01 10° NW
Cosmos 1833 Rocket 2.7 23:21:37 10° NNW 23:26:48 71° NNE 23:26:48 71° NNE
Cosmos 1339 Rocket 4.4 23:28:48 10° N 23:34:38 72° NE 23:34:38 72° NE
USA 234 4.1 23:41:47 10° NE 23:45:22 35° NE 23:45:22 35° NE
